Home > Weather > Nanjing > Past weeks

Flag for China Past Weather in Nanjing, Jiangsu, China — Yesterday and Last 2 Weeks

Now
91 °F

Passing clouds.


Feels Like: 97 °F
Forecast: 73 / 92 °F
Wind: 6 mph from Northeast

Location: Nanjing

Current Time: Aug 24, 2016 at 2:36:53 PM

Latest Report: Aug 24, 2016 at 2:00 PM


Visibility: N/A

Pressure: 29.65 "Hg

Humidity: 49%

Dew Point: 70 °F

Location of NanjingLocation

Past Weather in Nanjing — Graph

°F

Nanjing Temperature Yesterday

Maximum temperature yesterday: 93 °F (at 3:00 PM)
Minimum temperature yesterday: 79 °F (at 5:00 AM)
Average temperature yesterday: 86 °F

High & Low Weather Summary for the Past Weeks

 TemperatureHumidityPressure
High102 °F (Aug 19, 3:00 PM)100% (Aug 20, 4:00 PM)29.77 "Hg (Aug 20, 4:00 PM)
Low77 °F (Aug 24, 4:00 AM)42% (Aug 14, 5:00 PM)29.50 "Hg (Aug 18, 4:00 PM)
Average88 °F74%29.65 "Hg
* Reported Aug 9 1:00 PM — Aug 24 1:00 PM, Nanjing, Weather by CustomWeather, © 2016

Note: Actual official high and low records may vary slightly from our data, if they occured in-between our weather recording intervals... More about our weather records

Advertising

Nanjing Weather History for the Previous 24 Hours

Scroll right to see more
 ConditionsComfort  
Time TempWeatherWind HumidityBarometerVisibility
1:00 PM
Wed, Aug 24
91 °FPassing clouds.3 mph46%29.65 "HgN/A
12:00 PM90 °FPassing clouds.6 mph55%29.68 "HgN/A
11:00 AM90 °FPassing clouds.3 mph59%29.71 "HgN/A
10:00 AM88 °FPassing clouds.6 mph66%29.71 "HgN/A
9:00 AM86 °FPassing clouds.8 mph62%29.71 "HgN/A
8:00 AM84 °FSunny.6 mph70%29.71 "Hg10 mi
7:00 AM81 °FSunny.8 mph79%29.71 "Hg10 mi
6:00 AM77 °FClear.6 mph89%29.71 "Hg4 mi
5:00 AM77 °FClear.6 mph89%29.68 "Hg10 mi
4:00 AM77 °FClear.6 mph89%29.68 "Hg10 mi
3:00 AM79 °FClear.6 mph84%29.68 "Hg10 mi
2:00 AM79 °FClear.8 mph84%29.68 "Hg5 mi
1:00 AM81 °FClear.6 mph84%29.68 "Hg5 mi
12:00 AM81 °FClear.3 mph84%29.68 "Hg5 mi
11:00 PM
Tue, Aug 23
82 °FClear.3 mph79%29.68 "Hg10 mi
10:00 PM84 °FPassing clouds.6 mph74%29.71 "HgN/A
9:00 PM84 °FClear.6 mph74%29.71 "Hg10 mi
8:00 PM84 °FClear.3 mph74%29.68 "Hg10 mi
7:00 PM86 °FClear.6 mph66%29.65 "Hg10 mi
6:00 PM90 °FSunny.6 mph63%29.65 "Hg10 mi
5:00 PM91 °FPassing clouds.8 mph63%29.65 "HgN/A
4:00 PM91 °FPassing clouds.6 mph59%29.65 "HgN/A
3:00 PM93 °FPassing clouds.6 mph56%29.68 "HgN/A
2:00 PM91 °FPassing clouds.6 mph59%29.68 "HgN/A
Weather by CustomWeather, © 2016

See weather overviewHow to use our weather pages